This demonstration page uses our WeatherBlox Daily Observations layout. Learn more.

Left ArrowRight Arrow

Hourly Observations for May 26, 2015

Temp ( °F °C ) Dew Point ( °F °C ) Humidity (%) Winds ( mph kmh ) Pressure ( in mb ) Visibility ( mi km ) Precip ( " mm )
12:58 am 00:58 Clear 61 15.9 59 15.1 95 95 E 5 7 29.78 1008 10 16 0.00 0.00
1:58 am 01:58 Clear 60 15.7 58 14.4 92 92 E 2 4 29.77 1008 10 16 0.00 0.00
2:58 am 02:58 Clear 62 16.9 57 13.9 83 83 S 7 11 29.77 1008 10 16 0.00 0.00
3:22 am 03:22 Partly Cloudy 64 18 57 14 78 78 SE 15 24 29.77 1008 10 16 0.00 0.00
3:58 am 03:58 Clear 62 16.4 59 14.8 90 90 SE 10 17 29.77 1008 10 16 0.00 0.00
4:58 am 04:58 Clear 61 16 59 14.9 93 93 SE 6 9 29.74 1007 10 16 0.00 0.00
5:58 am 05:58 Sunny 59 15.2 58 14.6 96 96 E 3 6 29.74 1007 10 16 0.00 0.00
6:58 am 06:58 Sunny 60 15.5 59 15.2 98 98 ESE 6 9 29.77 1008 7 11 0.00 0.03
6:59 am 06:59 Sunny with Light Rain 61 16 59 15 94 94 ESE 6 9 29.74 1007 6 10 0.00 0.00
7:21 am 07:21 Sunny 61 16 59 15 94 94 ENE 3 6 29.74 1007 7 11 0.00 0.00
7:36 am 07:36 Partly Cloudy with Rain 61 16 61 16 100 100 ENE 1 2 29.74 1007 7 11 0.00 0.00
7:51 am 07:51 Mostly Cloudy 61 16 61 16 100 100 Calm 29.74 1007 10 16 0.00 0.00
7:58 am 07:58 Mostly Cloudy 61 16.1 60 15.5 96 96 Calm 29.77 1008 10 16 0.02 0.51
8:58 am 08:58 Partly Cloudy 63 17.2 60 15.8 92 92 SW 5 7 29.78 1008 10 16 0.00 0.00
9:58 am 09:58 Partly Cloudy 64 17.9 60 15.7 87 87 SSE 5 7 29.77 1008 10 16 0.00 0.00
10:11 am 10:11 Mostly Cloudy 64 18 61 16 88 88 SW 3 6 29.74 1007 10 16 0.00 0.00
10:14 am 10:14 Mostly Cloudy 64 18 59 15 83 83 SSW 3 6 29.74 1007 10 16 0.00 0.00
10:46 am 10:46 Mostly Cloudy with Light Rain 64 18 59 15 83 83 S 5 7 29.74 1007 10 16 0.00 0.00
10:58 am 10:58 Mostly Cloudy with Light Rain 65 18.3 60 15.6 84 84 SSW 5 7 29.77 1008 10 16 0.00 0.03
11:02 am 11:02 Mostly Cloudy with Light Rain 64 18 59 15 83 83 SSW 7 11 29.74 1007 10 16 0.00 0.00
11:08 am 11:08 Mostly Cloudy with Light Rain 66 19 61 16 83 83 SSW 7 11 29.74 1007 10 16 0.00 0.00
11:22 am 11:22 Cloudy 64 18 61 16 88 88 SW 7 11 29.74 1007 10 16 0.00 0.00
11:28 am 11:28 Cloudy 64 18 61 16 88 88 WSW 8 13 29.77 1008 10 16 0.00 0.00
11:56 am 11:56 Cloudy 66 19 59 15 78 78 W 6 9 29.77 1008 10 16 0.00 0.00
11:58 am 11:58 Cloudy 66 19 59 15 78 78 W 6 9 29.80 1009 10 16 0.00 0.03
12:48 pm 12:48 Mostly Cloudy 68 20 61 16 78 78 W 6 9 29.77 1008 10 16 0.00 0.00
12:58 pm 12:58 Mostly Cloudy 67 19.6 60 15.3 76 76 W 7 11 29.81 1010 10 16 0.00 0.00
1:43 pm 13:43 Mostly Cloudy with Light Rain 70 21 61 16 73 73 W 10 17 29.77 1008 10 16 0.00 0.00
1:52 pm 13:52 Mostly Cloudy 70 21 59 15 69 69 W 10 17 29.77 1008 10 16 0.00 0.00
1:58 pm 13:58 Mostly Cloudy 69 20.8 60 15.5 72 72 WSW 8 13 29.80 1009 10 16 0.00 0.03
2:13 pm 14:13 Mostly Cloudy with Heavy Rain 68 20 61 16 78 78 W 9 15 29.77 1008 1 2 0.00 0.00
2:14 pm 14:14 Mostly Cloudy with Heavy Rain 68 20 63 17 83 83 W 10 17 29.77 1008 1 1 0.00 0.00
2:15 pm 14:15 Mostly Cloudy with Heavy Rain 66 19 63 17 88 88 WNW 12 19 29.77 1008 3 5 0.00 0.00
2:24 pm 14:24 Mostly Cloudy with Rain 64 18 63 17 94 94 WNW 10 17 29.77 1008 3 5 0.00 0.00
2:35 pm 14:35 Partly Cloudy 66 19 64 18 94 94 W 10 17 29.77 1008 10 16 0.00 0.00
2:58 pm 14:58 Mostly Cloudy 67 19.5 62 16.4 82 82 WNW 15 24 29.82 1010 10 16 0.17 4.32
3:08 pm 15:08 Mostly Cloudy 66 19 61 16 83 83 WNW 15 24 29.80 1009 10 16 0.00 0.00
3:16 pm 15:16 Mostly Cloudy 66 19 61 16 83 83 WNW 14 22 29.80 1009 10 16 0.00 0.00
3:33 pm 15:33 Mostly Cloudy 68 20 61 16 78 78 WNW 12 19 29.80 1009 10 16 0.00 0.00
3:37 pm 15:37 Mostly Cloudy 68 20 61 16 78 78 WNW 15 24 29.80 1009 10 16 0.00 0.00
3:40 pm 15:40 Partly Cloudy 68 20 61 16 78 78 WNW 16 26 29.80 1009 10 16 0.00 0.00
3:44 pm 15:44 Mostly Cloudy 68 20 61 16 78 78 WNW 15 24 29.80 1009 10 16 0.00 0.00
3:47 pm 15:47 Mostly Cloudy 68 20 61 16 78 78 WNW 14 22 29.80 1009 10 16 0.00 0.00
3:48 pm 15:48 Mostly Cloudy 68 20 61 16 78 78 WNW 14 22 29.80 1009 10 16 0.00 0.00
3:58 pm 15:58 Mostly Cloudy 68 20 60 15.4 75 75 NW 14 22 29.84 1011 10 16 0.00 0.00
4:58 pm 16:58 Mostly Cloudy 68 19.8 60 15.6 77 77 NW 13 20 29.85 1011 10 16 0.00 0.00
5:43 pm 17:43 Mostly Cloudy 68 20 59 15 73 73 NW 10 17 29.83 1010 10 16 0.00 0.00
5:58 pm 17:58 Partly Cloudy 68 20 58 14.5 71 71 WNW 12 19 29.85 1011 10 16 0.00 0.00
6:58 pm 18:58 Sunny 69 20.5 57 13.8 66 66 W 10 17 29.85 1011 10 16 0.00 0.00
7:58 pm 19:58 Sunny 68 19.8 56 13.4 67 67 W 7 11 29.85 1011 10 16 0.00 0.00
8:58 pm 20:58 Clear 65 18.5 56 13.3 72 72 WSW 6 9 29.86 1011 10 16 0.00 0.00
9:58 pm 21:58 Clear 64 17.5 56 13.4 77 77 SW 7 11 29.88 1012 10 16 0.00 0.00
10:58 pm 22:58 Clear 62 16.5 56 13.3 82 82 WSW 5 7 29.91 1013 10 16 0.00 0.00
11:58 pm 23:58 Clear 58 14.3 54 12.4 88 88 WNW 7 11 29.92 1013 10 16 0.00 0.00

Powered by AerisWeather